Home   Weather   Ganja   Past weeks
Flag for Azerbaijan

Past Weather in Ganja, Azerbaijan — Yesterday and Last 2 Weeks

Now
46 °F

Passing clouds.


Feels Like: 43 °F
Forecast: 55 / 41 °F
Wind: 7 mph from Southeast

Location: Gyanca Airport

Current Time: Mar 21, 2019 at 10:01:16 pm

Latest Report: Mar 21, 2019 at 9:00 pm


Visibility: N/A

Pressure: 30.15 "Hg

Humidity: 87%

Dew Point: 43 °F

Location of GanjaLocation

Past Weather in Ganja — Graph

°F

Ganja Temperature Yesterday

Maximum temperature yesterday: 50 °F (at 1:30 pm)
Minimum temperature yesterday: 41 °F (at 7:30 am)
Average temperature yesterday: 45 °F

High & Low Weather Summary for the Past Weeks

 TemperatureHumidityPressure
High70 °F (Mar 11, 3:30 pm)100% (Mar 9, 6:30 am)30.45 "Hg (Mar 9, 6:30 am)
Low37 °F (Mar 9, 4:30 am)23% (Mar 13, 6:00 pm)29.62 "Hg (Mar 17, 1:30 pm)
Average52 °F58%30.00 "Hg
* Reported Mar 6 9:00 pm — Mar 21 9:00 pm, Ganja. Weather by CustomWeather, © 2019

Note: Actual official high and low records may vary slightly from our data, if they occured in-between our weather recording intervals... More about our weather records

Advertising

Ganja Weather History for the Previous 24 Hours

Scroll right to see more
 ConditionsComfort  
Time TempWeatherWind HumidityBarometerVisibility
9:00 pm
Thu, Mar 21
46 °FPassing clouds.7 mph87%30.15 "HgN/A
8:30 pm48 °FPassing clouds.7 mph82%30.15 "HgN/A
8:00 pm48 °FPartly sunny.7 mph82%30.15 "HgN/A
7:30 pm50 °FPartly sunny.9 mph76%30.15 "HgN/A
7:00 pm50 °FPartly sunny.12 mph76%30.12 "HgN/A
6:30 pm52 °FPartly sunny.14 mph72%30.12 "HgN/A
6:00 pm54 °FPartly sunny.14 mph67%30.12 "HgN/A
5:30 pm54 °FPartly sunny.12 mph67%30.12 "HgN/A
5:00 pm54 °FPartly sunny.9 mph63%30.12 "HgN/A
4:30 pm54 °FPartly sunny.9 mph63%30.12 "HgN/A
4:00 pm54 °FBroken clouds.12 mph63%30.12 "HgN/A
3:30 pm55 °FBroken clouds.9 mph59%30.12 "HgN/A
3:00 pm54 °FBroken clouds.7 mph63%30.12 "HgN/A
2:30 pm54 °FBroken clouds.7 mph63%30.15 "HgN/A
2:00 pm54 °FBroken clouds.7 mph63%30.15 "HgN/A
1:30 pm54 °FBroken clouds.5 mph63%30.15 "HgN/A
1:00 pm52 °FBroken clouds.7 mph62%30.15 "HgN/A
12:30 pm52 °FBroken clouds.5 mph67%30.18 "HgN/A
12:00 pm50 °FBroken clouds.7 mph67%30.18 "HgN/A
11:30 am48 °FBroken clouds.5 mph71%30.18 "HgN/A
11:00 am48 °FBroken clouds.5 mph76%30.18 "HgN/A
10:30 am48 °FBroken clouds.5 mph76%30.18 "HgN/A
10:00 am46 °FBroken clouds.5 mph87%30.18 "HgN/A
9:30 am45 °FFog.5 mph100%30.18 "Hg3 mi
9:00 am45 °FFog.5 mph93%30.18 "Hg3 mi
8:30 am43 °FFog.5 mph100%30.15 "Hg2 mi
8:00 am43 °FFog.5 mph100%30.15 "Hg2 mi
7:30 am43 °FDrizzle. Fog.No wind100%30.15 "Hg1 mi
7:00 am43 °FDrizzle. Fog.No wind100%30.15 "Hg1 mi
6:30 am43 °FFog.No wind100%30.15 "Hg1 mi
6:00 am43 °FFog.No wind100%30.15 "Hg1 mi
5:30 am43 °FFog.5 mph100%30.15 "Hg1 mi
5:00 am43 °FFog.5 mph100%30.15 "Hg1 mi
4:30 am43 °FFog.5 mph100%30.15 "Hg1 mi
4:00 am43 °FFog.5 mph100%30.15 "Hg1 mi
3:30 am43 °FFog.7 mph100%30.15 "Hg1 mi
3:00 am43 °FFog.7 mph100%30.15 "Hg1 mi
2:30 am43 °FFog.7 mph100%30.15 "Hg1 mi
2:00 am43 °FFog.9 mph100%30.15 "Hg1 mi
1:30 am43 °FFog.7 mph100%30.15 "Hg1 mi
1:00 am43 °FFog.7 mph100%30.15 "Hg1 mi
12:30 am43 °FFog.9 mph100%30.15 "Hg1 mi
12:00 am43 °FFog.9 mph100%30.15 "Hg1 mi
11:30 pm
Wed, Mar 20
43 °FFog.12 mph100%30.15 "Hg1 mi
11:00 pm43 °FFog.12 mph100%30.15 "Hg1 mi
10:30 pm43 °FFog.14 mph100%30.15 "Hg1 mi
10:00 pm43 °FFog.12 mph100%30.15 "Hg1 mi
Weather by CustomWeather, © 2019

See weather overview